User: anonymous   Login
Location: Caltech
(34.1382°N, 118.1253°W)
Time: 13:45:59
(UTC-07:00)
Language:

Cosmos 1484 Rocket - Orbit

View from above orbital plane
View from above orbital plane
View from above satellite
View from above satellite

Ground track
Ground track

The orbit data is extracted from the following two-line orbital elements,

1 14208U 83075B   16270.53558226  .00000797  00000-0  51959-4 0  9996
2 14208  97.3520 285.8613 0038626 322.6848  37.1700 15.10088524807719
Epoch (UTC): 26 September 2016 12:51:14
Eccentricity: 0.0038626
inclination: 97.3520°
perigee height: 509 km
apogee height: 562 km
right ascension of ascending node: 285.8613°
argument of perigee: 322.6848°
revolutions per day: 15.10088524
mean anomaly at epoch: 37.1700°
orbit number at epoch: 80771

The dashed part of the orbit path shows where the satellite is in the earth's shadow,  

DLR